[[[{"header":{"parameterUnit":"kt","parameterCategory":2,"dx":1,"dy":1,"la1":30.253999710083008,"la2":30.299108505249023,"lo1":-89.0895004272461,"lo2":-89.04439544677734,"nx":28,"ny":28,"refTime":"2022-10-13T21:00:00:Z","depth":0,"parameterNumber":1,"parameterNumberName":"U-component_of_WINDS"},"data":[-6.0101,-6.0298,-6.0284,-6.0502,-6.0526,-6.0672,-6.072,-6.0781,-6.0825,-6.0999,-6.1096,-6.1102,-6.1141,-6.1254,-6.1359,-6.1359,-6.1406,-6.1485,-6.1473,-6.1128,-6.108,-6.1034,-6.0987,-6.1495,-6.1495,-6.1832,-6.1835,-6.1837,-5.9849,-5.9875,-5.9986,-6.0084,-6.0179,-6.0093,-6.0164,-6.025,-6.0384,-6.044,-6.0535,-6.0686,-6.0804,-6.0817,-6.0928,-6.102,-6.0988,-6.1052,-6.1046,-6.1054,-6.0685,-6.0635,-6.1077,-6.1076,-6.1076,-6.1076,-6.1076,-6.1076,-5.9386,-5.9505,-5.9555,-5.9675,-5.9721,-5.9787,-5.9897,-5.9901,-6.001,-6.0124,-6.0086,-6.0237,-6.0291,-6.0419,-6.0458,-6.0576,-6.0502,-6.0569,-6.0586,-6.0604,-6.0627,-6.0146,-6.0593,-6.0592,-6.0591,-6.059,-6.0589,0,-5.9043,-5.9023,-5.9129,-5.923,-5.9317,-5.9395,-5.9463,-5.9531,-5.9484,-5.9576,-5.9708,-5.9782,-5.9927,-6.0051,-6.0152,-6.0179,-6.0102,-6.0092,-6.0138,-6.0161,-6.0167,-6.0168,-5.9569,-6.008,-6.0075,-6.0072,-6.007,-6.0068,-5.8578,-5.8717,-5.8763,-5.8839,-5.8872,-5.8996,-5.9067,-5.9014,-5.9092,-5.9169,-5.9277,-5.9398,-5.9494,-5.9708,-5.9713,-5.9822,-5.9787,-5.9983,-5.9803,-5.9818,-5.9793,-5.9786,-5.98,-6.0021,-6.0027,-6.0032,-6.0036,0,-5.8317,-5.8292,-5.8504,-5.8535,-5.8547,-5.8696,-5.8723,-5.884,-5.883,-5.899,-5.9024,-5.9011,-5.9142,-5.9114,-5.9259,-5.924,-5.9488,-5.9448,-5.9468,-5.946,-5.9635,-5.962,-6.0204,-6.0278,-5.9748,-5.9753,-5.9757,0,-5.7912,-5.8097,-5.8049,-5.8173,-5.8377,-5.8319,-5.8522,-5.8535,-5.8579,-5.8704,-5.861,-5.8729,-5.8674,-5.879,-5.8763,-5.896,-5.8986,-5.8985,-5.8977,-5.8996,-5.8996,-5.9039,-5.9016,-5.8948,-5.8945,-5.8942,-5.894,0,-5.7509,-5.7699,-5.79,-5.794,-5.7992,-5.8088,-5.8115,-5.8164,-5.8235,-5.8321,-5.8366,-5.8471,-5.853,-5.8613,-5.8578,-5.8457,-5.8817,-5.8643,-5.8816,-5.8817,-5.89,-5.8896,-5.9416,-5.8936,-5.8936,-5.8935,-5.8934,0,-5.7178,-5.7266,-5.756,-5.7601,-5.7654,-5.7786,-5.7885,-5.7991,-5.8051,-5.8042,-5.811,-5.8045,-5.8212,-5.8042,-5.8273,-5.8125,-5.8189,-5.8202,-5.8213,-5.823,-5.8041,-5.8342,-5.8838,-5.889,-5.8241,-5.8235,-5.823,0,-5.6725,-5.7015,-5.6967,-5.7248,-5.7378,-5.7263,-5.7409,-5.7464,-5.7464,-5.7574,-5.7574,-5.7702,-5.7569,-5.7605,-5.7722,-5.7729,-5.7921,-5.7701,-5.7866,-5.7872,-5.7856,-5.8311,-5.8393,-5.8731,-5.8155,-5.8163,-5.8169,0,-5.6371,-5.6432,-5.6486,-5.6529,-5.6592,-5.67,-5.6867,-5.698,-5.7056,-5.7128,-5.7268,-5.7445,-5.7353,-5.7414,-5.7372,-5.7497,-5.7789,-5.7381,-5.7382,-5.7458,-5.8115,-5.8192,-5.8249,-5.7734,-5.7742,-5.775,-5.811,0,-5.5882,-5.6023,-5.6165,-5.6263,-5.6342,-5.6516,-5.6485,-5.6571,-5.6522,-5.6519,-5.6723,-5.6762,-5.6879,-5.6935,-5.6889,-5.7182,-5.7129,-5.7029,-5.6865,-5.7162,-5.7281,-5.7329,-5.6691,-5.6686,-5.6681,-5.6678,0,0,-5.5456,-5.5657,-5.5599,-5.5759,-5.5822,-5.5701,-5.589,-5.5937,-5.6037,-5.6084,-5.599,-5.6248,-5.6285,-5.6537,-5.6627,-5.6674,-5.6724,-5.6622,-5.702,-5.7059,-5.7094,-5.7221,-5.7271,-5.667,-5.6669,-5.6667,-5.6666,0,-5.5271,-5.5308,-5.5494,-5.554,-5.5606,-5.5592,-5.5637,-5.5681,-5.5688,-5.5887,-5.5787,-5.5906,-5.6113,-5.6166,-5.622,-5.6589,-5.6508,-5.6627,-5.6836,-5.6978,-5.7022,-5.7061,-5.7195,-5.7243,-5.6656,-5.6656,-5.6657,0,-5.4919,-5.495,-5.5037,-5.5173,-5.5215,-5.5352,-5.517,-5.5322,-5.5423,-5.5285,-5.5486,-5.5504,-5.5572,-5.5813,-5.5921,-5.584,-5.6314,-5.6158,-5.6184,-5.6197,-5.6333,-5.6386,-5.6433,-5.5814,-5.5811,-5.5808,0,0,-5.4764,-5.4894,-5.4912,-5.5131,-5.5164,-5.5147,-5.5216,-5.5175,-5.5236,-5.5262,-5.5284,-5.5349,-5.5468,-5.5549,-5.5659,-5.5929,-5.594,-5.6056,-5.6096,-5.6128,-5.6158,-5.6303,-5.6355,-5.5798,-5.5798,-5.5797,0,0,-5.469,-5.4719,-5.4658,-5.4908,-5.4969,-5.5003,-5.5139,-5.5066,-5.5162,-5.5139,-5.5078,-5.5093,-5.5318,-5.5341,-5.5201,-5.5601,-5.5438,-5.547,-5.5578,-5.5628,-5.5667,-5.5659,-5.5023,0,0,0,0,0,-5.4486,-5.4715,-5.4659,-5.4696,-5.4869,-5.5033,-5.5055,-5.5009,-5.4894,-5.5002,-5.5009,-5.4917,-5.5253,-5.5128,-5.5167,-5.5324,-5.5661,-5.5685,-5.5708,-5.591,-5.5963,-5.6007,0,0,0,0,0,0,-5.45,-5.4545,-5.4653,-5.4697,-5.4735,-5.5024,-5.482,-5.4813,-5.4881,-5.486,-5.4918,-5.4918,-5.4883,-5.5105,-5.5141,-5.5291,-5.5011,-5.567,-5.5691,-5.5709,-5.5928,-5.5971,-5.6008,0,0,0,0,0,-5.4511,-5.4547,-5.4836,-5.4693,-5.4727,-5.472,-5.4811,-5.4804,-5.4856,-5.4867,-5.4864,-5.4815,-5.4889,-5.4915,-5.5126,-5.5276,-5.4986,-5.4999,-5.5684,-5.57,-5.5714,-5.5949,0,0,0,0,0,0,-5.4519,-5.4543,-5.4842,-5.485,-5.4603,-5.4703,-5.4716,-5.4796,-5.4856,-5.4856,-5.4759,-5.4742,-5.4895,-5.4915,-5.4936,-5.5273,-5.4965,-5.4979,-5.4988,-5.5696,-5.5709,-5.572,0,0,0,0,0,0,-5.4523,-5.4551,-5.4846,-5.4735,-5.473,-5.4687,-5.47,-5.4872,-5.4859,-5.4745,-5.4732,-5.4751,-5.4864,-5.4916,-5.4932,-5.5203,-5.495,-5.4963,-5.4972,-5.4978,-5.5706,-5.5716,0,0,0,0,0,0,-5.4534,-5.4558,-5.4732,-5.4729,-5.4724,-5.4816,-5.4838,-5.5019,-5.4762,-5.4744,-5.4737,-5.4726,-5.4868,-5.4883,-5.493,-5.5194,-5.5201,-5.495,-5.4959,-5.4965,-5.497,0,0,0,0,0,0,0,-5.4543,-5.4392,-5.4792,-5.4724,-5.4719,-5.4929,-5.4931,-5.4933,-5.4759,-5.4749,-5.474,-5.4731,-5.4875,-5.4889,-5.4904,-5.5188,0,0,-5.4949,-5.4955,0,0,0,0,0,0,0,0,-5.438,-5.4389,-5.4792,-5.4794,-5.4795,-5.4929,-5.4931,-5.4933,-5.4757,-5.475,-5.4742,-5.4734,-5.4879,-5.489,-5.4902,0,0,0,0,0,0,0,0,0,0,0,0,0,0,0,-5.4792,-5.4793,0,-5.4929,-5.4931,-5.4932,-5.4756,-5.475,-5.4743,-5.4737,-5.4882,-5.4892,-5.4901,0,0,0,0,0,0,0,0,0,0,0,0,0,0,0,0,0,0,0,0,0,0,0,0,0,0,0,0,0,0,0,0,0,0,0,0,0,0,0,0,0,0,0,0,0,0,0,0,0,0,0,0,0,0,0,0,0,0,0,0,0,0,0,0,0,0,0,0,0]}],[{"header":{"parameterUnit":"kt","parameterCategory":2,"dx":1,"dy":1,"la1":30.253999710083008,"la2":30.299108505249023,"lo1":-89.0895004272461,"lo2":-89.04439544677734,"nx":28,"ny":28,"refTime":"2022-10-13T21:00:00:Z","depth":0,"parameterNumber":2,"parameterNumberName":"V-component_of_WINDS"},"data":[-8.5305,-8.5454,-8.5436,-8.5597,-8.5607,-8.5713,-8.5745,-8.5783,-8.5808,-8.593,-8.5996,-8.599,-8.6006,-8.6078,-8.6147,-8.6142,-8.6172,-8.6239,-8.6222,-8.5944,-8.5904,-8.5866,-8.583,-8.6246,-8.6246,-8.6512,-8.6514,-8.6516,-8.5101,-8.5113,-8.5194,-8.5259,-8.5326,-8.5251,-8.5295,-8.5356,-8.5452,-8.5484,-8.5549,-8.5654,-8.5733,-8.5726,-8.5798,-8.5864,-8.5832,-8.5885,-8.588,-8.5883,-8.5585,-8.5547,-8.591,-8.591,-8.591,-8.591,-8.591,-8.591,-8.4724,-8.4815,-8.4843,-8.493,-8.4957,-8.5,-8.5082,-8.5074,-8.5151,-8.5226,-8.5187,-8.5295,-8.5321,-8.5398,-8.5419,-8.55,-8.5437,-8.5488,-8.5501,-8.5515,-8.5533,-8.5151,-8.5511,-8.551,-8.5509,-8.5508,-8.5507,0,-8.4441,-8.442,-8.4496,-8.4567,-8.4628,-8.4681,-8.4725,-8.4775,-8.472,-8.4785,-8.4878,-8.4927,-8.5024,-8.5108,-8.5171,-8.5181,-8.5107,-8.5097,-8.5132,-8.5153,-8.5163,-8.5159,-8.4674,-8.5087,-8.5083,-8.5081,-8.5079,-8.5077,-8.4059,-8.4168,-8.4188,-8.4244,-8.4264,-8.4355,-8.4404,-8.4347,-8.4402,-8.4446,-8.4528,-8.4611,-8.4675,-8.4825,-8.4811,-8.4883,-8.4848,-8.5008,-8.4858,-8.4873,-8.4849,-8.4843,-8.4853,-8.5038,-8.5043,-8.5047,-8.505,0,-8.3845,-8.3814,-8.3975,-8.3984,-8.399,-8.4106,-8.4112,-8.4199,-8.4181,-8.4298,-8.4322,-8.4293,-8.4384,-8.4345,-8.444,-8.4417,-8.4603,-8.4567,-8.4593,-8.4583,-8.4722,-8.4709,-8.518,-8.5237,-8.4806,-8.481,-8.4814,0,-8.3506,-8.3651,-8.3595,-8.3691,-8.3848,-8.3788,-8.3945,-8.3945,-8.3968,-8.4059,-8.397,-8.4058,-8.3993,-8.4075,-8.404,-8.4185,-8.4203,-8.4193,-8.4182,-8.4201,-8.4203,-8.4228,-8.4208,-8.4154,-8.4152,-8.4149,-8.4148,0,-8.3174,-8.3314,-8.3469,-8.3496,-8.352,-8.3593,-8.3606,-8.3631,-8.368,-8.3737,-8.3767,-8.3838,-8.3876,-8.3931,-8.3886,-8.3786,-8.4063,-8.3916,-8.4052,-8.4054,-8.4116,-8.4113,-8.4539,-8.4145,-8.4144,-8.4143,-8.4142,0,-8.2895,-8.2956,-8.3187,-8.3203,-8.3242,-8.3344,-8.341,-8.3488,-8.3521,-8.3506,-8.355,-8.3485,-8.361,-8.3467,-8.3637,-8.3519,-8.3561,-8.3563,-8.3572,-8.358,-8.3421,-8.3667,-8.4078,-8.4119,-8.3588,-8.3583,-8.3579,0,-8.2522,-8.2747,-8.2697,-8.2917,-8.3015,-8.2907,-8.3019,-8.3051,-8.3041,-8.312,-8.3107,-8.3199,-8.3084,-8.3106,-8.3196,-8.3186,-8.3339,-8.3164,-8.3276,-8.3281,-8.3271,-8.3649,-8.372,-8.3992,-8.352,-8.3526,-8.353,0,-8.223,-8.2259,-8.2303,-8.233,-8.2364,-8.2446,-8.2575,-8.2653,-8.2708,-8.2755,-8.286,-8.2988,-8.2905,-8.2945,-8.29,-8.2995,-8.3233,-8.2894,-8.2893,-8.2956,-8.3487,-8.3553,-8.3599,-8.3181,-8.3188,-8.3194,-8.3483,0,-8.1814,-8.1922,-8.2037,-8.2102,-8.2159,-8.2295,-8.2255,-8.2319,-8.227,-8.2255,-8.241,-8.2426,-8.2505,-8.2546,-8.25,-8.2731,-8.2686,-8.2597,-8.2455,-8.2703,-8.2797,-8.2836,-8.2318,-8.2313,-8.2309,-8.2306,0,0,-8.1465,-8.162,-8.1561,-8.1685,-8.1729,-8.1616,-8.1765,-8.1794,-8.1858,-8.189,-8.181,-8.1993,-8.2011,-8.2202,-8.2276,-8.2309,-8.2345,-8.2261,-8.2586,-8.2617,-8.2646,-8.2747,-8.2788,-8.23,-8.2298,-8.2297,-8.2296,0,-8.1304,-8.1327,-8.1476,-8.1504,-8.1544,-8.1522,-8.1558,-8.1577,-8.1575,-8.1727,-8.163,-8.1718,-8.1867,-8.1897,-8.1932,-8.2237,-8.2158,-8.2264,-8.2441,-8.2549,-8.2586,-8.2618,-8.2725,-8.2764,-8.2287,-8.2287,-8.2288,0,-8.1008,-8.1024,-8.1091,-8.1189,-8.1214,-8.1317,-8.1158,-8.1275,-8.1351,-8.122,-8.1372,-8.1376,-8.1413,-8.16,-8.1683,-8.1612,-8.199,-8.1864,-8.1886,-8.1895,-8.1997,-8.2041,-8.208,-8.1567,-8.1564,-8.1562,0,0,-8.0875,-8.0976,-8.0974,-8.1151,-8.1174,-8.1143,-8.1194,-8.1151,-8.1187,-8.1203,-8.1206,-8.1244,-8.1329,-8.1387,-8.1465,-8.1677,-8.1678,-8.1777,-8.1811,-8.1839,-8.1862,-8.1972,-8.2016,-8.1554,-8.1553,-8.1553,0,0,-8.0811,-8.0816,-8.076,-8.0961,-8.1,-8.1009,-8.1118,-8.1049,-8.1116,-8.1096,-8.1026,-8.1033,-8.1208,-8.1215,-8.1102,-8.1413,-8.1272,-8.1299,-8.1402,-8.1444,-8.1477,-8.1472,-8.094,0,0,0,0,0,-8.0626,-8.0815,-8.0765,-8.0792,-8.0915,-8.1037,-8.1052,-8.1,-8.0901,-8.0989,-8.098,-8.0893,-8.1139,-8.1038,-8.1065,-8.1192,-8.144,-8.146,-8.1479,-8.1661,-8.1706,-8.1744,0,0,0,0,0,0,-8.0636,-8.0671,-8.0759,-8.0777,-8.0804,-8.103,-8.0851,-8.0842,-8.0891,-8.0872,-8.0898,-8.0894,-8.0851,-8.102,-8.1045,-8.1167,-8.0931,-8.1448,-8.1465,-8.148,-8.1677,-8.1713,-8.1745,0,0,0,0,0,-8.0645,-8.0672,-8.0882,-8.0774,-8.0798,-8.0773,-8.0844,-8.0835,-8.0871,-8.0859,-8.0852,-8.0828,-8.0856,-8.0874,-8.1035,-8.1157,-8.0913,-8.0923,-8.1459,-8.1472,-8.1484,-8.1695,0,0,0,0,0,0,-8.065,-8.0664,-8.0886,-8.0891,-8.0699,-8.076,-8.0767,-8.0829,-8.0853,-8.0849,-8.0784,-8.0769,-8.0862,-8.0874,-8.0889,-8.1156,-8.0898,-8.0908,-8.0914,-8.1469,-8.148,-8.1489,0,0,0,0,0,0,-8.0649,-8.0669,-8.0888,-8.0797,-8.0791,-8.0747,-8.0754,-8.0883,-8.0855,-8.0777,-8.0765,-8.0777,-8.0839,-8.0876,-8.0887,-8.109,-8.0887,-8.0896,-8.0903,-8.0907,-8.1478,-8.1486,0,0,0,0,0,0,-8.0656,-8.0674,-8.0795,-8.0791,-8.0785,-8.0837,-8.086,-8.0988,-8.0778,-8.0778,-8.0758,-8.0748,-8.0844,-8.0853,-8.0886,-8.1086,-8.1089,-8.0887,-8.0894,-8.0898,-8.0901,0,0,0,0,0,0,0,-8.0662,-8.0558,-8.0856,-8.0785,-8.078,-8.0938,-8.0939,-8.094,-8.0776,-8.0768,-8.076,-8.0752,-8.0832,-8.0843,-8.0853,-8.1082,0,0,-8.0886,-8.0891,0,0,0,0,0,0,0,0,-8.055,-8.0556,-8.0856,-8.0857,-8.0858,-8.0938,-8.0939,-8.094,-8.0775,-8.0768,-8.0762,-8.0756,-8.0835,-8.0844,-8.0852,0,0,0,0,0,0,0,0,0,0,0,0,0,0,0,-8.0856,-8.0857,0,-8.0938,-8.0939,-8.094,-8.0774,-8.0768,-8.0763,-8.0758,-8.0837,-8.0844,-8.0851,0,0,0,0,0,0,0,0,0,0,0,0,0,0,0,0,0,0,0,0,0,0,0,0,0,0,0,0,0,0,0,0,0,0,0,0,0,0,0,0,0,0,0,0,0,0,0,0,0,0,0,0,0,0,0,0,0,0,0,0,0,0,0,0,0,0,0,0,0]}]]]